TimeCST,TemperatureF,Dew PointF,Humidity,Sea Level PressureIn,VisibilityMPH,Wind Direction,Wind SpeedMPH,Gust SpeedMPH,PrecipitationIn,Events,Conditions,WindDirDegrees,DateUTC
12:15 AM,37.0,26.2,65,29.77,10.0,West,18.4,27.6,N/A,,Clear,270,2012-12-04 06:15:00
12:35 AM,36.3,26.2,67,29.78,10.0,West,15.0,21.9,N/A,,Clear,270,2012-12-04 06:35:00
12:55 AM,35.6,26.1,68,29.79,10.0,West,15.0,23.0,N/A,,Clear,270,2012-12-04 06:55:00
1:15 AM,34.7,25.7,70,29.80,10.0,West,11.5,18.4,N/A,,Scattered Clouds,260,2012-12-04 07:15:00
1:35 AM,34.2,24.8,69,29.81,10.0,West,11.5,21.9,N/A,,Clear,280,2012-12-04 07:35:00
1:55 AM,32.7,24.6,72,29.82,10.0,WNW,12.7,17.3,N/A,,Clear,290,2012-12-04 07:55:00
2:15 AM,32.5,23.2,68,29.84,10.0,West,16.1,19.6,N/A,,Clear,270,2012-12-04 08:15:00
2:55 AM,31.5,20.7,64,29.86,10.0,West,15.0,21.9,N/A,,Clear,280,2012-12-04 08:55:00
3:15 AM,31.1,20.3,64,29.87,10.0,West,13.8,24.2,N/A,,Clear,270,2012-12-04 09:15:00
3:35 AM,30.6,19.8,64,29.87,10.0,West,10.4,21.9,N/A,,Clear,280,2012-12-04 09:35:00
3:55 AM,29.5,19.0,65,29.88,10.0,West,13.8,23.0,N/A,,Clear,270,2012-12-04 09:55:00
4:15 AM,29.3,18.0,63,29.88,10.0,West,13.8,-,N/A,,Clear,270,2012-12-04 10:15:00
4:35 AM,28.2,17.4,64,29.90,10.0,WNW,10.4,-,N/A,,Clear,290,2012-12-04 10:35:00
4:55 AM,27.9,16.7,63,29.91,10.0,WNW,18.4,23.0,N/A,,Clear,290,2012-12-04 10:55:00
5:15 AM,26.8,14.5,60,29.93,10.0,WNW,16.1,28.8,N/A,,Clear,300,2012-12-04 11:15:00
5:35 AM,25.5,13.1,59,29.95,10.0,WNW,24.2,28.8,N/A,,Clear,290,2012-12-04 11:35:00
5:55 AM,24.1,12.6,62,29.95,10.0,WNW,21.9,27.6,N/A,,Clear,300,2012-12-04 11:55:00
6:15 AM,23.0,12.2,63,29.96,10.0,WNW,16.1,23.0,N/A,,Clear,290,2012-12-04 12:15:00
6:35 AM,22.6,12.2,64,29.98,10.0,West,13.8,21.9,N/A,,Clear,280,2012-12-04 12:35:00
6:55 AM,21.9,12.0,66,30.00,10.0,West,11.5,-,N/A,,Clear,280,2012-12-04 12:55:00
7:15 AM,21.2,11.1,65,30.01,10.0,WNW,11.5,18.4,N/A,,Clear,290,2012-12-04 13:15:00
7:35 AM,20.8,10.9,66,30.02,10.0,WNW,17.3,21.9,N/A,,Clear,290,2012-12-04 13:35:00
7:55 AM,20.5,10.9,67,30.04,10.0,West,16.1,21.9,N/A,,Clear,280,2012-12-04 13:55:00
8:15 AM,20.7,10.0,64,30.05,10.0,WNW,17.3,25.3,N/A,,Clear,300,2012-12-04 14:15:00
8:35 AM,20.7,9.5,62,30.06,10.0,WNW,11.5,24.2,N/A,,Clear,300,2012-12-04 14:35:00
8:55 AM,21.2,10.8,64,30.07,10.0,WNW,9.2,17.3,N/A,,Scattered Clouds,290,2012-12-04 14:55:00
9:15 AM,21.2,8.2,57,30.08,10.0,WNW,17.3,24.2,N/A,,Scattered Clouds,290,2012-12-04 15:15:00
9:35 AM,21.2,8.2,57,30.09,10.0,WNW,12.7,18.4,N/A,,Clear,290,2012-12-04 15:35:00
9:55 AM,21.7,8.2,56,30.11,10.0,NW,15.0,20.7,N/A,,Clear,310,2012-12-04 15:55:00
10:15 AM,22.1,8.2,55,30.11,10.0,WNW,19.6,24.2,N/A,,Clear,300,2012-12-04 16:15:00
10:35 AM,23.4,9.1,55,30.11,10.0,West,16.1,20.7,N/A,,Clear,280,2012-12-04 16:35:00
10:55 AM,23.4,9.1,55,30.12,10.0,WNW,11.5,21.9,N/A,,Clear,300,2012-12-04 16:55:00
11:15 AM,23.7,9.0,53,30.13,10.0,WNW,16.1,-,N/A,,Clear,300,2012-12-04 17:15:00
11:35 AM,25.0,10.0,53,30.13,10.0,WNW,15.0,20.7,N/A,,Clear,300,2012-12-04 17:35:00
12:15 PM,25.2,9.7,52,30.14,10.0,NW,17.3,24.2,N/A,,Clear,310,2012-12-04 18:15:00
12:35 PM,25.5,9.5,51,30.15,10.0,WNW,17.3,20.7,N/A,,Clear,300,2012-12-04 18:35:00
12:55 PM,25.9,9.5,50,30.16,10.0,NW,13.8,23.0,N/A,,Clear,310,2012-12-04 18:55:00
1:15 PM,26.2,9.7,50,30.16,10.0,NW,16.1,23.0,N/A,,Clear,310,2012-12-04 19:15:00
1:35 PM,26.2,9.5,49,30.17,10.0,WNW,16.1,-,N/A,,Clear,300,2012-12-04 19:35:00
1:55 PM,26.8,9.9,49,30.18,10.0,NW,13.8,20.7,N/A,,Clear,310,2012-12-04 19:55:00
2:15 PM,26.2,9.3,49,30.19,10.0,WNW,15.0,20.7,N/A,,Clear,290,2012-12-04 20:15:00
2:35 PM,26.2,9.5,49,30.20,10.0,West,15.0,-,N/A,,Clear,280,2012-12-04 20:35:00
2:55 PM,25.9,9.9,51,30.21,10.0,NW,16.1,20.7,N/A,,Clear,320,2012-12-04 20:55:00
3:15 PM,25.5,9.5,51,30.21,10.0,WNW,8.1,-,N/A,,Clear,300,2012-12-04 21:15:00
3:35 PM,24.8,9.5,52,30.22,10.0,NW,11.5,16.1,N/A,,Clear,310,2012-12-04 21:35:00
3:55 PM,23.5,9.3,55,30.24,10.0,NW,8.1,-,N/A,,Clear,310,2012-12-04 21:55:00
4:15 PM,22.3,8.8,56,30.25,10.0,NW,9.2,-,N/A,,Clear,310,2012-12-04 22:15:00
4:35 PM,21.7,8.8,57,30.27,10.0,WNW,12.7,-,N/A,,Clear,300,2012-12-04 22:35:00
4:55 PM,21.7,9.0,58,30.28,10.0,WNW,11.5,-,N/A,,Clear,300,2012-12-04 22:55:00
5:15 PM,20.8,9.0,60,30.29,10.0,NW,8.1,-,N/A,,Clear,310,2012-12-04 23:15:00
5:35 PM,19.4,8.6,63,30.30,10.0,NW,4.6,-,N/A,,Clear,310,2012-12-04 23:35:00
5:55 PM,20.1,8.8,62,30.32,10.0,NW,8.1,-,N/A,,Clear,310,2012-12-04 23:55:00
6:15 PM,19.6,9.0,63,30.32,10.0,Calm,Calm,-,N/A,,Clear,0,2012-12-05 00:15:00
6:35 PM,17.2,7.9,67,30.32,10.0,North,4.6,-,N/A,,Clear,350,2012-12-05 00:35:00
6:55 PM,18.3,8.8,66,30.33,10.0,North,4.6,-,N/A,,Clear,350,2012-12-05 00:55:00
7:15 PM,18.5,8.8,66,30.34,10.0,Calm,Calm,-,N/A,,Clear,0,2012-12-05 01:15:00
7:35 PM,18.9,8.8,65,30.34,10.0,NE,3.5,-,N/A,,Clear,40,2012-12-05 01:35:00
7:55 PM,18.3,9.1,67,30.36,10.0,NNW,4.6,-,N/A,,Clear,340,2012-12-05 01:55:00
8:15 PM,18.7,9.5,67,30.37,10.0,NNW,8.1,-,N/A,,Clear,340,2012-12-05 02:15:00
8:35 PM,17.4,9.1,70,30.37,10.0,NW,3.5,-,N/A,,Clear,320,2012-12-05 02:35:00
8:55 PM,17.4,9.0,69,30.37,10.0,Calm,Calm,-,N/A,,Clear,0,2012-12-05 02:55:00
9:15 PM,15.8,8.8,74,30.36,10.0,NW,4.6,-,N/A,,Clear,310,2012-12-05 03:15:00
9:35 PM,17.2,9.9,73,30.37,10.0,West,3.5,-,N/A,,Clear,260,2012-12-05 03:35:00
9:55 PM,15.8,9.1,75,30.36,10.0,West,3.5,-,N/A,,Clear,270,2012-12-05 03:55:00
10:15 PM,14.0,8.2,78,30.36,10.0,West,4.6,-,N/A,,Clear,260,2012-12-05 04:15:00
10:35 PM,15.6,9.3,76,30.38,10.0,West,4.6,-,N/A,,Clear,270,2012-12-05 04:35:00
10:55 PM,14.9,8.6,76,30.39,10.0,West,4.6,-,N/A,,Clear,260,2012-12-05 04:55:00
11:15 PM,13.1,7.9,80,30.39,10.0,West,3.5,-,N/A,,Clear,260,2012-12-05 05:15:00
11:35 PM,14.0,9.0,80,30.40,10.0,West,3.5,-,N/A,,Clear,280,2012-12-05 05:35:00
11:55 PM,13.1,8.6,82,30.41,10.0,West,5.8,-,N/A,,Clear,260,2012-12-05 05:55:00